Weather History for KBHM - October, 2013

Change the Weather History Date:

Wednesday, October 30, 2013

  Actual Average Record
Temperature  
Mean Temperature 68 °F 60 °F  
Max Temperature 78 °F 71 °F 86 °F (1984)
Min Temperature 58 °F 48 °F 28 °F (1952)
Degree Days  
Heating Degree Days 0 7  
Month to date heating degree days 97 111  
Since 1 July heating degree days 97 120  
Cooling Degree Days 3 1  
Month to date cooling degree days 104 87  
Year to date cooling degree days 1947 2037  
Growing Degree Days 17 (Base 50)    
Moisture  
Dew Point 55 °F    
Average Humidity 65    
Maximum Humidity 87    
Minimum Humidity 43    
Precipitation  
Precipitation 0.00 in 0.12 in 1.39 in (1949)
Month to date precipitation 1.52 3.32  
Year to date precipitation 56.25 44.30  
Snow  
Snow 0.00 in 0.00 in - ()
Month to date snowfall 0.0 0.0  
Since 1 July snowfall 0.0 0.0  
Since 1 September snowfall 0.0 0.0  
Snow Depth 0.00 in    
Sea Level Pressure  
Sea Level Pressure 30.21 in    
Wind  
Wind Speed 4 mph (SSE)    
Max Wind Speed 13 mph    
Max Gust Speed 20 mph    
Visibility 10 miles    
Events      
T = Trace of Precipitation, MM = Missing Value Source: NWS Daily Summary

Daily Weather History Graph

Daily Weather History Graph

Search for Another Location

Airport or City:

Trip Planner

Search our weather history database for the weather conditions in past years. The results will help you decide how hot, cold, wet, or windy it might be!

Date:

Astronomy

Oct. 30, 2013 Rise Set
Actual Time 7:04 AM CDT 5:56 PM CDT
Civil Twilight 6:38 AM CDT 6:22 PM CDT
Nautical Twilight 6:09 AM CDT 6:51 PM CDT
Astronomical Twilight 5:40 AM CDT 7:20 PM CDT
Moon 3:04 AM CDT 3:31 PM CDT
Length of Visible Light 11h 43m
Length of Day
10h 52m
Waning Crescent, 17% of the Moon is Illuminated
Oct 30
Waning Crescent
Nov 3
New
Nov 9
First Quarter
Nov 17
Full
Nov 25
Last Quarter

Hourly Weather History & Observations

Time (CDT) Temp. Dew Point Humidity Pressure Visibility Wind Dir Wind Speed Gust Speed Precip Events Conditions
12:53 AM 64.9 °F 55.0 °F 70% 30.23 in 10.0 mi Calm Calm - N/A   Mostly Cloudy
1:53 AM 62.1 °F 55.0 °F 78% 30.24 in 10.0 mi Calm Calm - N/A   Mostly Cloudy
2:53 AM 63.0 °F 55.0 °F 75% 30.23 in 10.0 mi Calm Calm - N/A   Mostly Cloudy
3:53 AM 62.1 °F 55.0 °F 78% 30.23 in 10.0 mi Calm Calm - N/A   Scattered Clouds
4:53 AM 59.0 °F 55.0 °F 87% 30.25 in 10.0 mi Calm Calm - N/A   Scattered Clouds
5:53 AM 57.9 °F 54.0 °F 87% 30.26 in 10.0 mi Calm Calm - N/A   Scattered Clouds
6:53 AM 59.0 °F 55.9 °F 90% 30.27 in 10.0 mi North 3.5 mph - N/A   Overcast
7:53 AM 59.0 °F 55.9 °F 90% 30.28 in 8.0 mi Calm Calm - N/A   Overcast
8:53 AM 64.9 °F 57.9 °F 78% 30.29 in 10.0 mi Calm Calm - N/A   Overcast
9:53 AM 72.0 °F 57.0 °F 59% 30.29 in 10.0 mi South 4.6 mph - N/A   Mostly Cloudy
10:53 AM 73.9 °F 55.9 °F 53% 30.27 in 10.0 mi South 5.8 mph - N/A   Mostly Cloudy
11:53 AM 77.0 °F 55.0 °F 47% 30.26 in 10.0 mi SW 6.9 mph - N/A   Mostly Cloudy
12:53 PM 77.0 °F 54.0 °F 45% 30.23 in 10.0 mi SSW 9.2 mph 16.1 mph N/A   Overcast
1:53 PM 77.0 °F 54.0 °F 45% 30.20 in 10.0 mi South 6.9 mph - N/A   Overcast
2:53 PM 75.9 °F 53.1 °F 45% 30.17 in 10.0 mi SSE 6.9 mph - N/A   Overcast
3:53 PM 75.9 °F 55.0 °F 48% 30.16 in 10.0 mi SSE 4.6 mph - N/A   Overcast
4:53 PM 73.9 °F 57.0 °F 55% 30.14 in 10.0 mi SE 4.6 mph - N/A   Overcast
5:53 PM 71.1 °F 57.0 °F 61% 30.14 in 10.0 mi SE 4.6 mph - N/A   Overcast
6:53 PM 70.0 °F 55.0 °F 59% 30.15 in 10.0 mi SSE 3.5 mph - N/A   Overcast
7:53 PM 68.0 °F 55.9 °F 65% 30.15 in 10.0 mi Calm Calm - N/A   Overcast
8:53 PM 68.0 °F 55.9 °F 65% 30.14 in 10.0 mi SE 3.5 mph - N/A   Overcast
9:53 PM 66.9 °F 55.0 °F 66% 30.14 in 10.0 mi SE 4.6 mph - N/A   Overcast
10:53 PM 66.9 °F 55.0 °F 66% 30.14 in 10.0 mi SE 6.9 mph - N/A   Overcast
11:53 PM 68.0 °F 55.0 °F 63% 30.14 in 10.0 mi SSE 4.6 mph - N/A   Overcast